Regional Weather Roundup
Issued by NWS

Home | Current Version | Previous Version | Graphics & Text | Print | Product List | Glossary On
Versions: 1 2 3 4 5 6 7 8 9 10 11 12 13 14 15 16 17 18 19 20 21 22 23 24 25 26 27 28 29 30 31 32 33 34 35 36 37 38 39 40 41 42 43 44 45 46 47 48 49 50
000
ASUS43 KDMX 242201
RWRIA

WEATHER ROUNDUP FOR IOWA
NATIONAL WEATHER SERVICE DES MOINES IA
500 PM CDT SUN SEP 24 2017

NOTE: "FAIR" INDICATES FEW OR NO CLOUDS BELOW 12,000 FEET WITH NO
SIGNIFICANT WEATHER AND/OR OBSTRUCTIONS TO VISIBILITY.

* - THESE STATIONS ARE NOT NWS STATIONS...THUS NOT UNDER NWS
QUALITY CONTROL.  THEY ALSO DO NOT REPORT WEATHER SUCH
AS PRECIPITATION OR FOG.

IAZ001>003-012>014-020>022-031>034-043>046-242300-
   NORTHWEST IOWA

CITY           SKY/WX    TMP DP  RH WIND       PRES   REMARKS
CARROLL *      MOSUNNY   90  64  43 S13G23    29.88S HX  91
CHEROKEE *     PTSUNNY   77  61  57 SW8       29.88F
DENISON *      MOSUNNY   73  66  78 CALM      29.90F
LE MARS *      CLOUDY    72  64  78 NW12      29.90R
ORANGE CITY *  PTSUNNY   72  70  94 NW15      29.90S
SHELDON *      PTSUNNY   73  66  78 W8        29.89R
SIOUX CITY     CLOUDY    70  64  81 NW12      29.89R
SPENCER        PTSUNNY   76  67  73 W8        29.89S
STORM LAKE *   CLOUDY    75  64  69 SW9       29.90S
$$

IAZ055>058-069>071-079>083-090>094-242300-
   SOUTHWEST IOWA

CITY           SKY/WX    TMP DP  RH WIND       PRES   REMARKS
ATLANTIC *     SUNNY     88  63  42 S10G22    29.87F HX  88
AUDUBON *      MOSUNNY   88  64  45 S12G17    29.90S HX  89
CLARINDA *     MOSUNNY   90  63  40 S15G22    29.89F HX  90
COUNCIL BLFS * PTSUNNY   73  72  94 NW8       29.88R
CRESTON *      MOSUNNY   88  61  40 S15G21    29.92S HX  88
HARLAN  *      MOSUNNY   88  61  40 S16G23    29.90S HX  88
LAMONI         PTSUNNY   85  65  51 S6        29.92F HX  86
RED OAK *      SUNNY     90  63  40 S15G22    29.86F HX  90
SHENANDOAH *   PTSUNNY   88  63  42 S13       29.87S HX  88
$$

IAZ047>049-059>061-072>074-084-242300-
   CENTRAL IOWA

CITY           SKY/WX    TMP DP  RH WIND       PRES   REMARKS
AMES           SUNNY     87  63  44 S18       29.90F HX  88
ANKENY *       MOSUNNY   88  63  42 S13G20    29.91S HX  88
BOONE *        SUNNY     86  63  45 S10G18    29.90S HX  87
CHARITON *     MOSUNNY   88  63  42 S13       29.92F HX  88
DES MOINES     MOSUNNY   90  61  37 SE16      29.89F HX  90
GRINNELL*      SUNNY     88  61  39 S12       29.95S HX  88
KNOXVILLE *    SUNNY     88  61  40 S13G18    29.91F HX  88
MARSHALLTOWN   SUNNY     89  62  40 S14       29.91F HX  89
NEWTON *       SUNNY     88  61  40 S12G20    29.92F HX  88
PELLA *        SUNNY     90  59  34 S13       29.93F HX  89
PERRY *          N/A     91  56  29 SE8G17    29.89S HX  89
$$

IAZ004>006-015-016-023>025-035-036-242300-
   NORTH CENTRAL IOWA

CITY           SKY/WX    TMP DP  RH WIND       PRES   REMARKS
ALGONA *       SUNNY     84  68  58 SW7       29.88S HX  87
CLARION *      SUNNY     90  63  40 S15G22    29.89S HX  90
ESTHERVILLE    PTSUNNY   84  63  49 S10       29.86S HX  85
FORT DODGE *   SUNNY     89  59  36 S14G23    29.88F HX  88
MASON CITY     CLOUDY    88  59  37 S16       29.91F HX  87
FOREST CITY *    N/A     84  59  42 S9        29.89S HX  84
WEBSTER CITY * SUNNY     90  61  37 S13G20    29.87S HX  89
IOWA FALLS *     N/A     89  60  37 S12       29.92F HX  88
$$

IAZ007>011-017>019-026>030-037>042-050>054-066-242300-
   NORTHEAST IOWA

CITY           SKY/WX    TMP DP  RH WIND       PRES   REMARKS
CEDAR RAPIDS   MOSUNNY   89  61  38 S9        29.94F HX  89
CHARLES CITY * SUNNY     88  61  40 S13G18    29.92F HX  88
CLINTON *      MOSUNNY  N/A N/A N/A S6        29.98F
DECORAH *      SUNNY     88  63  42 S8G20     29.93F HX  88
DUBUQUE        SUNNY     85  63  47 S9        29.99F HX  86
MONTICELLO *   SUNNY     90  63  40 S12G20    29.95F HX  90
OELWEIN *      PTSUNNY   90  63  40 SW8       29.94F HX  90
WATERLOO       SUNNY     89  60  37 S14       29.91F HX  89
$$

IAZ064-065-067-068-078-242300-
   EAST CENTRAL IOWA

CITY           SKY/WX    TMP DP  RH WIND       PRES   REMARKS
DAVENPORT      SUNNY     87  62  43 S7        29.98F HX  87
IOWA CITY      SUNNY     90  63  40 S13       29.95F HX  91
MUSCATINE *    SUNNY     90  61  37 SE8       29.95F HX  89
QUAD CITIES    SUNNY     89  62  40 S6        29.95F HX  89
$$

IAZ062-063-075>077-085>089-095>099-242300-
   SOUTHEAST IOWA

CITY           SKY/WX    TMP DP  RH WIND       PRES   REMARKS
BURLINGTON     MOSUNNY   89  64  43 SE8       29.95F HX  90
FAIRFIELD *    SUNNY     90  61  37 S10       29.94F HX  89
FORT MADISON * MOSUNNY   93  61  33 SE5       29.96S HX  93
KEOKUK *       SUNNY     91  59  33 S8        29.94F HX  90
OSKALOOSA *      N/A     89  62  40 S9        29.94F HX  89
OTTUMWA        SUNNY     89  63  41 SE14      29.94F HX  90
WASHINGTON *   SUNNY     90  63  40 S9        29.96S HX  90
$$

ABBREVIATIONS USED IN REMARKS
   TC - TEMPERATURES IN CELSIUS
  WCI - WIND CHILL INDEX
   HX - HEAT INDEX
  VSB - VISIBILITY
$$





USA.gov is the U.S. government's official web portal to all federal, state and local government web resources and services.